Preview of NWS' New Version of Forecast
This preview is not operational and should not be used for support decisions.

Regional Weather Roundup (RWR)

Issued by National Weather Service (NWS)

                            
000
ASUS45 KCYS 241510
RWRWY 

WYOMING REGIONAL WEATHER ROUNDUP
NATIONAL WEATHER SERVICE CHEYENNE WY
900 AM MDT SAT AUG 24 2019

NOTE:  "FAIR" INDICATES FEW OR NO CLOUDS BELOW 12,000 FEET
WITH NO SIGNIFICANT WEATHER AND/OR OBSTRUCTIONS TO VISIBILITY.

WYZ001-241600-
YELLOWSTONE NATIONAL PARK
  
CITY           SKY/WX    TMP DP  RH WIND       PRES   REMARKS
LK YELLOWSTONE   N/A     54  43  66 VRB5      30.24R                  
W YELLOWSTONE  NOT AVBL                                               

$$
WYZ002>013-054>058-071-098>099-241600-
NORTHERN WYOMING
  
CITY           SKY/WX    TMP DP  RH WIND       PRES   REMARKS
JACKSON        FAIR      51  38  60 SW3       30.20R                  
CODY           FAIR      64  49  57 N5        30.02S                  
GREYBULL       FAIR      61  50  67 SE3       29.97S                  
WORLAND        FAIR      59  51  75 SW3       29.98R                  
SHERIDAN       FAIR      64  56  75 CALM      29.94R                  
BUFFALO        FAIR      68  54  60 N3          N/A                   
GILLETTE       FAIR      63  55  75 S7        29.96S                  
HULETT         FAIR      66  55  68 S5        29.98                   
NEWCASTLE      CLOUDY    66  52  59 SE12G23   29.99                   

$$
WYZ014>020-022>026-101>103-241600-
CENTRAL WYOMING
  
CITY           SKY/WX    TMP DP  RH WIND       PRES   REMARKS
BIG PINEY      FAIR      50  35  56 VRB5      30.21S                  
PINEDALE       FAIR      52  36  54 CALM      30.23                   
DUBOIS         FAIR      52  37  58 W15       30.16                   
LANDER         FAIR      58  47  66 E5        30.08S                  
RIVERTON       FAIR      58  45  62 W9        30.07S                  
CASPER         FAIR      64  45  49 SW16G23   30.04S                  
DOUGLAS        FAIR      62  52  69 NW10      30.02S                  

$$
WYZ021-027>030-104>119-241600-
SOUTHERN WYOMING
  
CITY           SKY/WX    TMP DP  RH WIND       PRES   REMARKS
EVANSTON       FAIR      59  34  39 SW7       30.23R                  
KEMMERER       FAIR      59  36  41 CALM      30.23                   
ROCK SPRINGS   FAIR      58  30  34 NW5       30.20S                  
DIXON          FAIR      54  32  43 SE8G23    30.22R                  
RAWLINS        FAIR      62  41  46 SW13      30.17R                  
SARATOGA       FAIR      59  34  38 SE3       30.19R                  
LARAMIE        FAIR      61  37  41 E3        30.15R                  
CHEYENNE       FAIR      70  38  31 W14G23    30.06S                  
TORRINGTON     FAIR      63  57  81 E8        29.97S                  
PINE BLUFFS    CLOUDY    59  57  94 S7        30.05S                  

$$
  

000
ASUS45 KCYS 241510
RWRWY 

WYOMING REGIONAL WEATHER ROUNDUP
NATIONAL WEATHER SERVICE CHEYENNE WY
900 AM MDT SAT AUG 24 2019

NOTE:  "FAIR" INDICATES FEW OR NO CLOUDS BELOW 12,000 FEET
WITH NO SIGNIFICANT WEATHER AND/OR OBSTRUCTIONS TO VISIBILITY.

WYZ001-241600-
...YELLOWSTONE NATIONAL PARK...
  
CITY           SKY/WX    TMP DP  RH WIND       PRES   REMARKS
LK YELLOWSTONE   N/A     54  43  66 VRB5      30.24R                  
W YELLOWSTONE  NOT AVBL                                               

$$
WYZ002>013-054>058-071-098>099-241600-
...NORTHERN WYOMING...
  
CITY           SKY/WX    TMP DP  RH WIND       PRES   REMARKS
JACKSON        MOSUNNY   51  38  60 SW3       30.20R                  
CODY           SUNNY     64  49  57 N5        30.02S                  
GREYBULL       SUNNY     61  50  67 SE3       29.97S                  
WORLAND        SUNNY     59  51  75 SW3       29.98R                  
SHERIDAN       MOSUNNY   64  56  75 CALM      29.94R                  
BUFFALO        SUNNY     68  54  60 N3          N/A                   
GILLETTE       MOSUNNY   63  55  75 S7        29.96S                  
HULETT         FAIR      66  55  68 S5        29.98F                  
NEWCASTLE      CLOUDY    66  52  59 SE12G23   29.99S                  

$$
WYZ014>020-022>026-101>103-241600-
...CENTRAL WYOMING...
  
CITY           SKY/WX    TMP DP  RH WIND       PRES   REMARKS
BIG PINEY      SUNNY     50  35  56 VRB5      30.21S                  
PINEDALE       MOSUNNY   52  36  54 CALM      30.23R                  
DUBOIS         FAIR      52  37  58 W15       30.16F                  
LANDER         SUNNY     58  47  66 E5        30.08S                  
RIVERTON       SUNNY     58  45  62 W9        30.07S                  
CASPER         SUNNY     64  45  49 SW16G23   30.04S                  
DOUGLAS        SUNNY     62  52  69 NW10      30.02S                  

$$
WYZ021-027>030-104>119-241600-
...SOUTHERN WYOMING...
  
CITY           SKY/WX    TMP DP  RH WIND       PRES   REMARKS
EVANSTON       SUNNY     59  34  39 SW7       30.23R                  
KEMMERER       MOSUNNY   59  36  41 CALM      30.23S                  
FORT BRIDGER   NOT AVBL                                               
ROCK SPRINGS   MOSUNNY   58  30  34 NW5       30.20S                  
DIXON          FAIR      54  32  43 SE8G23    30.22R                  
RAWLINS        SUNNY     62  41  46 SW13      30.17R                  
SARATOGA       FAIR      59  34  38 SE3       30.19R                  
LARAMIE        SUNNY     61  37  41 E3        30.15R                  
CHEYENNE       SUNNY     70  38  31 W14G23    30.06S                  
TORRINGTON     SUNNY     63  57  81 E8        29.97S                  
PINE BLUFFS    CLOUDY    59  57  94 S7        30.05S                  

$$